STARLINK AE

Last updated on June 19, 2020, 12:02 a.m. UTC

1 45758U 20038AE  20170.66667824  .00096112  11277-4  11946-3 0  9992
2 45758  52.9994 272.2338 0111136  69.1799  30.3672 15.96252323  2124

Satellite is not in orbit.